Home > Weather > Arth > Past weeks

Flag for Switzerland Past Weather in Arth, Schwyz, Switzerland — Yesterday and Last 2 Weeks

Now
72 °F

Mild.


Feels Like: 75 °F
Forecast: 48 / 67 °F
Wind: 5 mph from Northwest

Location: Altdorf

Current Time: Jul 28, 2016 at 2:35:43 PM

Latest Report: Jul 28, 2016 at 1:00 PM


Visibility: N/A

Pressure: 30.03 "Hg

Humidity: 65%

Dew Point: 59 °F

Location of ArthLocation

Past Weather in Arth — Graph

°F

Arth Temperature Yesterday

Maximum temperature yesterday: 75 °F (at 12:00 PM)
Minimum temperature yesterday: 61 °F (at 6:00 AM)
Average temperature yesterday: 67 °F

High & Low Weather Summary for the Past Weeks

 TemperatureHumidityPressure
High88 °F (Jul 20, 6:00 PM)96% (Jul 23, 5:00 AM)30.38 "Hg (Jul 23, 5:00 AM)
Low45 °F (Jul 16, 5:00 AM)35% (Jul 20, 6:00 PM)29.89 "Hg (Jul 20, 6:00 PM)
Average66 °F77%30.11 "Hg
* Reported Jul 13 1:00 PM — Jul 28 1:00 PM, Arth, Weather by CustomWeather, © 2016

Note: Actual official high and low records may vary slightly from our data, if they occured in-between our weather recording intervals... More about our weather records

Advertising

Arth Weather History for the Previous 24 Hours

Scroll right to see more
 ConditionsComfort  
Time TempWeatherWind HumidityBarometerVisibility
1:00 PM
Thu, Jul 28
72 °FMild.5 mph65%30.03 "HgN/A
12:00 PM70 °FMild.6 mph68%30.05 "HgN/A
11:00 AM68 °FScattered clouds.2 mph68%30.06 "Hg19 mi
10:00 AM65 °FMild.N/A75%30.08 "HgN/A
9:00 AM62 °FCool.2 mph83%30.09 "HgN/A
8:00 AM59 °FScattered clouds.No wind89%30.09 "Hg16 mi
7:00 AM58 °FCool.1 mph90%30.10 "HgN/A
6:00 AM58 °FCool.3 mph91%30.11 "HgN/A
5:00 AM57 °FClear.3 mph95%30.12 "Hg19 mi
4:00 AM58 °FCool.2 mph94%30.12 "HgN/A
3:00 AM59 °FCool.1 mph95%30.13 "HgN/A
2:00 AM60 °FOvercast.No wind94%30.13 "Hg9 mi
1:00 AM60 °FCool.1 mph94%30.12 "HgN/A
12:00 AM62 °FCool.No wind94%30.11 "HgN/A
11:00 PM
Wed, Jul 27
63 °FOvercast.1 mph92%30.12 "Hg9 mi
10:00 PM64 °FMild.5 mph91%30.11 "HgN/A
9:00 PM64 °FMild.3 mph93%30.11 "HgN/A
8:00 PM65 °FRain. Low clouds.5 mph89%30.08 "Hg2 mi
7:00 PM66 °FMild.3 mph88%30.07 "HgN/A
6:00 PM70 °FMild.2 mph86%30.03 "HgN/A
5:00 PM72 °FLight rain. Overcast.2 mph84%30.01 "Hg1 mi
4:00 PM71 °FMild.1 mph82%30.03 "HgN/A
3:00 PM71 °FMild.2 mph85%30.03 "HgN/A
2:00 PM72 °FPartly sunny.2 mph75%30.03 "Hg14 mi
Weather by CustomWeather, © 2016

See weather overviewHow to use our weather pages